Hourly Weather Roundup
Issued by NWS Central Illinois

Home | Current Version | Previous Version | Text Only | Print | Product List | Glossary On
Versions: 1 2 3 4 5 6 7 8 9 10 11 12 13 14 15 16 17 18 19 20 21 22 23 24 25 26 27 28 29 30 31 32 33 34 35 36 37 38 39 40 41 42 43 44 45 46 47 48 49 50
000
NZUS43 KILX 231610
HWRILX

AREA WEATHER ROUNDUP
NATIONAL WEATHER SERVICE, LINCOLN IL
1100 AM CDT WED JUL 23 2014


CITY           SKY/WX    TMP DP  RH WIND       PRES   REMARKS
BLOOMINGTON    SUNNY     73  58  59 NE18      30.15R
CHAMPAIGN      PTSUNNY   73  62  68 NE14      30.10R
DECATUR        NOT AVBL
FLORA          CLOUDY    74  70  88 SW6       30.05R
GALESBURG      SUNNY     76  62  62 N14       30.16S
JACKSONVILLE   SUNNY     79  68  70 N12       30.12S HX  81
LACON          SUNNY     73  57  57 NE10      30.14S
LAWRENCEVILLE  CLOUDY    71  69  93 NW3       30.05S
LITCHFIELD     CLOUDY    74  67  78 NE13      30.10R
$$


CITY           SKY/WX    TMP DP  RH WIND       PRES   REMARKS
LINCOLN        MOSUNNY   77  61  58 N13       30.10R
MACOMB         SUNNY     74  62  67 NE10      30.17S
MATTOON        CLOUDY    69  63  81 N10       30.08R
MT CARMEL AP   CLOUDY    72  70  94 N3        30.04S
OLNEY-NOBLE AP CLOUDY    72  70  94 CALM      30.05S
PARIS          CLOUDY    70  66  88 N9        30.08R
PEORIA         SUNNY     78  58  49 NE16      30.13S
PONTIAC        SUNNY     73  59  60 NE15      30.14R
RANTOUL        SUNNY     76  58  54 N15G22    30.12R
ROBINSON       CLOUDY    74  72  93 W6        30.06R
SPRINGFIELD    PTSUNNY   78  64  61 NE13      30.11R HX  80
TAYLORVILLE    CLOUDY    73  64  73 N13       30.11R
$$

...REGIONAL REPORTS...


CITY           SKY/WX    TMP DP  RH WIND       PRES   REMARKS
CHICAGO O`HARE MOSUNNY   70  53  54 NE17G25   30.15F
KANKAKEE       SUNNY     71  58  64 N16G25    30.14R
MOLINE         SUNNY     76  58  53 N15       30.17S
MOUNT VERNON   CLOUDY    72  66  83 S12       30.07S
PITTSFIELD     MOSUNNY   79  67  67 NE10      30.12S HX  81
QUINCY         PTSUNNY   78  69  73 NE13      30.12S HX  80
ROCKFORD       MOSUNNY   75  54  47 NE16      30.19S
$$


CITY           SKY/WX    TMP DP  RH WIND       PRES   REMARKS
BURLINGTON     MOSUNNY   76  65  68 NE15      30.15R
CEDAR RAPIDS   SUNNY     75  58  55 NE13      30.20R
DES MOINES     PTSUNNY   80  63  55 MISG      30.21R HX  81
KIRKSVILLE     SUNNY     80  66  62 NE15      30.17R HX  82
OTTUMWA        SUNNY     77  63  61 NE10      30.17R
ST LOUIS       CLOUDY    80  73  79 N13       30.08R HX  84
$$


CITY           SKY/WX    TMP DP  RH WIND       PRES   REMARKS
TERRE HAUTE    CLOUDY    76  70  82 N5        30.05R
EVANSVILLE     CLOUDY    72  67  84 S3        30.05S
INDIANAPOLIS   CLOUDY    69  67  93 S6        30.04F
LAFAYETTE      CLOUDY    71  63  75 N12       30.08R
MADISON        MOSUNNY   75  56  51 NE14      30.20S
MILWAUKEE      MOSUNNY   66  55  67 N16G23    30.18S
$$




USA.gov is the U.S. government's official web portal to all federal, state and local government web resources and services.